Weather History for Versailles, OH

Change the Weather History Date:

Thursday, March 21, 2013

  Actual Average (KDAY) Record (KDAY)
Temperature  
Mean Temperature 24 °F 42 °F  
Max Temperature 30 °F 52 °F 86 °F (2012)
Min Temperature 17 °F 33 °F 14 °F (1960)
Degree Days  
Heating Degree Days 42 23  
Month to date heating degree days 557  
Since 1 July heating degree days 4832  
Cooling Degree Days 0 0  
Month to date cooling degree days 0  
Year to date cooling degree days 0  
Moisture  
Dew Point 17 °F    
Average Humidity 73    
Maximum Humidity 93    
Minimum Humidity 60    
Precipitation  
Precipitation 0.00 in 0.11 in 0.96 in (1961)
Month to date precipitation 2.12  
Year to date precipitation 7.07  
Snow  
Snow 0.00 in 0.10 in 2.80 in (1984)
Month to date snowfall 2.7  
Since 1 July snowfall 22.0  
Snow Depth -    
Sea Level Pressure  
Sea Level Pressure 29.96 in    
Wind  
Wind Speed 10 mph (WNW)    
Max Wind Speed 16 mph    
Max Gust Speed 22 mph    
Visibility 10 miles    
Events Snow    
T = Trace of Precipitation, MM = Missing Value Source: NWS Daily Summary

Daily Weather History Graph

Daily Weather History Graph

Search for Another Location

Airport:

Trip Planner

Search our weather history database for the weather conditions in past years. The results will help you decide how hot, cold, wet, or windy it might be!

Date:

Astronomy

Mar. 21, 2013 Rise Set
Actual Time 7:39 AM EDT 7:51 PM EDT
Civil Twilight 7:12 AM EDT 8:18 PM EDT
Nautical Twilight 6:40 AM EDT 8:50 PM EDT
Astronomical Twilight 6:08 AM EDT 9:22 PM EDT
Moon 2:20 PM EDT (3/21) 4:01 AM EDT (3/21)
Length of Visible Light 13h 06m
Length of Day
12h 12m
Waxing Gibbous, 68% of the Moon is Illuminated
Mar 21
Waxing Gibbous
Mar 27
Full
Apr 3
Last Quarter
Apr 10
New
Apr 18
First Quarter

Hourly Weather History & Observations

Time (EDT) Temp. Windchill Dew Point Humidity Pressure Visibility Wind Dir Wind Speed Gust Speed Precip Events Conditions
12:15 AM 21.2 °F 8.9 °F 17.6 °F 86% 29.96 in 10.0 mi NW 12.7 mph 16.1 mph N/A Snow Light Snow
12:35 AM 21.2 °F 11.7 °F 19.4 °F 93% 29.96 in 1.5 mi NW 8.1 mph - N/A Snow Light Snow
12:55 AM 21.2 °F 10.9 °F 17.6 °F 86% 29.96 in 10.0 mi NW 9.2 mph - N/A   Overcast
1:15 AM 21.2 °F 10.1 °F 17.6 °F 86% 29.96 in 10.0 mi WNW 10.4 mph 17.3 mph N/A   Overcast
1:35 AM 21.2 °F 10.1 °F 14.0 °F 74% 29.95 in 10.0 mi NW 10.4 mph 18.4 mph N/A   Overcast
2:15 AM 21.2 °F 9.5 °F 10.4 °F 63% 29.95 in 10.0 mi NW 11.5 mph - N/A   Overcast
2:35 AM 21.2 °F 10.9 °F 12.2 °F 68% 29.95 in 10.0 mi NW 9.2 mph - N/A   Overcast
2:55 AM 21.2 °F 12.6 °F 12.2 °F 68% 29.94 in 10.0 mi NW 6.9 mph - N/A   Overcast
3:15 AM 21.2 °F 12.6 °F 12.2 °F 68% 29.94 in 10.0 mi NW 6.9 mph - N/A   Overcast
3:35 AM 21.2 °F 7.8 °F 12.2 °F 68% 29.94 in 10.0 mi NW 15.0 mph - N/A   Overcast
3:55 AM 19.4 °F 10.4 °F 15.8 °F 86% 29.93 in 10.0 mi NW 6.9 mph - N/A   Overcast
4:15 AM 19.4 °F 9.5 °F 14.0 °F 80% 29.93 in 10.0 mi NW 8.1 mph - N/A   Overcast
4:35 AM 19.4 °F 7.9 °F 14.0 °F 80% 29.92 in 10.0 mi NW 10.4 mph - N/A   Overcast
4:55 AM 19.4 °F 7.2 °F 14.0 °F 80% 29.92 in 10.0 mi NW 11.5 mph 16.1 mph N/A   Overcast
5:15 AM 19.4 °F 7.2 °F 15.8 °F 86% 29.92 in 3.0 mi NW 11.5 mph - N/A Snow Light Snow
5:35 AM 19.4 °F 8.6 °F 17.6 °F 93% 29.92 in 7.0 mi NW 9.2 mph - N/A   Mostly Cloudy
5:55 AM 19.4 °F 9.5 °F 15.8 °F 86% 29.92 in 10.0 mi NNW 8.1 mph - N/A   Scattered Clouds
6:15 AM 19.4 °F 10.4 °F 14.0 °F 80% 29.93 in 10.0 mi NW 6.9 mph - N/A   Scattered Clouds
6:35 AM 19.4 °F 9.5 °F 15.8 °F 86% 29.92 in 7.0 mi NW 8.1 mph - N/A   Mostly Cloudy
6:55 AM 19.4 °F 7.9 °F 14.0 °F 80% 29.93 in 10.0 mi NW 10.4 mph - N/A   Overcast
7:15 AM 19.4 °F 8.6 °F 15.8 °F 86% 29.93 in 7.0 mi NNW 9.2 mph - N/A Snow Light Snow
7:35 AM 19.4 °F 7.9 °F 15.8 °F 86% 29.93 in 10.0 mi NW 10.4 mph 16.1 mph N/A   Overcast
7:55 AM 17.6 °F 6.4 °F 14.0 °F 86% 29.94 in 10.0 mi NW 9.2 mph - N/A   Mostly Cloudy
8:15 AM 17.6 °F 7.3 °F 14.0 °F 86% 29.94 in 10.0 mi NW 8.1 mph - N/A   Scattered Clouds
8:35 AM 19.4 °F 8.6 °F 15.8 °F 86% 29.94 in 10.0 mi NW 9.2 mph - N/A   Clear
8:55 AM 19.4 °F 7.2 °F 14.0 °F 80% 29.95 in 10.0 mi WNW 11.5 mph - N/A   Clear
9:15 AM 19.4 °F 6.6 °F 14.0 °F 80% 29.95 in 10.0 mi NW 12.7 mph 17.3 mph N/A   Scattered Clouds
9:35 AM 21.2 °F 8.9 °F 15.8 °F 80% 29.95 in 10.0 mi NW 12.7 mph - N/A   Clear
9:55 AM 21.2 °F 8.3 °F 14.0 °F 74% 29.96 in 10.0 mi NW 13.8 mph - N/A   Clear
10:15 AM 21.2 °F 8.3 °F 14.0 °F 74% 29.96 in 10.0 mi NW 13.8 mph 21.9 mph N/A   Mostly Cloudy
10:35 AM 23.0 °F 10.6 °F 15.8 °F 74% 29.97 in 10.0 mi WNW 13.8 mph 17.3 mph N/A   Mostly Cloudy
10:55 AM 23.0 °F 11.7 °F 15.8 °F 74% 29.96 in 10.0 mi NW 11.5 mph 19.6 mph N/A   Scattered Clouds
11:15 AM 23.0 °F 12.4 °F 15.8 °F 74% 29.97 in 10.0 mi WNW 10.4 mph 18.4 mph N/A   Mostly Cloudy
11:35 AM 26.6 °F 15.7 °F 17.6 °F 69% 29.96 in 10.0 mi NW 12.7 mph 17.3 mph N/A   Mostly Cloudy
11:55 AM 26.6 °F 19.1 °F 17.6 °F 69% 29.97 in 10.0 mi NW 6.9 mph 16.1 mph N/A   Mostly Cloudy
12:15 PM 26.6 °F 15.7 °F 17.6 °F 69% 29.97 in 10.0 mi NW 12.7 mph 17.3 mph N/A   Overcast
12:35 PM 26.6 °F 14.7 °F 17.6 °F 69% 29.97 in 10.0 mi WNW 15.0 mph 20.7 mph N/A   Overcast
12:55 PM 26.6 °F 14.7 °F 17.6 °F 69% 29.97 in 10.0 mi West 15.0 mph 20.7 mph N/A   Overcast
1:15 PM 26.6 °F 15.7 °F 19.4 °F 74% 29.97 in 7.0 mi West 12.7 mph 19.6 mph N/A Snow Light Snow
1:35 PM 28.4 °F 19.7 °F 19.4 °F 69% 29.97 in 10.0 mi WNW 9.2 mph 19.6 mph N/A   Mostly Cloudy
1:55 PM 28.4 °F 20.4 °F 17.6 °F 64% 29.97 in 10.0 mi WNW 8.1 mph - N/A   Overcast
2:15 PM 26.6 °F 16.2 °F 17.6 °F 69% 29.98 in 10.0 mi WNW 11.5 mph 18.4 mph N/A Snow Light Snow
2:35 PM 26.6 °F 14.7 °F 19.4 °F 74% 29.97 in 10.0 mi West 15.0 mph 19.6 mph N/A Snow Light Snow
2:55 PM 26.6 °F 16.2 °F 21.2 °F 80% 29.97 in 4.0 mi West 11.5 mph 20.7 mph N/A Snow Light Snow
3:15 PM 28.4 °F 18.5 °F 19.4 °F 69% 29.97 in 10.0 mi WNW 11.5 mph 18.4 mph N/A   Overcast
3:35 PM 30.2 °F 19.8 °F 19.4 °F 64% 29.95 in 10.0 mi NW 13.8 mph - N/A   Overcast
3:55 PM 30.2 °F 19.8 °F 19.4 °F 64% 29.95 in 10.0 mi West 13.8 mph 19.6 mph N/A   Overcast
4:15 PM 30.2 °F 19.8 °F 17.6 °F 60% 29.95 in 10.0 mi NW 13.8 mph 17.3 mph N/A   Overcast
4:35 PM 30.2 °F 20.2 °F 17.6 °F 60% 29.95 in 10.0 mi West 12.7 mph 20.7 mph N/A   Overcast
4:55 PM 30.2 °F 18.9 °F 17.6 °F 60% 29.96 in 10.0 mi WNW 16.1 mph 21.9 mph N/A   Overcast
5:15 PM 30.2 °F 20.8 °F 17.6 °F 60% 29.96 in 10.0 mi West 11.5 mph 18.4 mph N/A   Overcast
5:35 PM 30.2 °F 21.3 °F 17.6 °F 60% 29.96 in 10.0 mi WNW 10.4 mph 16.1 mph N/A   Overcast
5:55 PM 30.2 °F 22.6 °F 17.6 °F 60% 29.96 in 10.0 mi WNW 8.1 mph - N/A   Overcast
6:15 PM 30.2 °F 21.9 °F 17.6 °F 60% 29.96 in 10.0 mi West 9.2 mph - N/A   Overcast
6:35 PM 30.2 °F 22.6 °F 17.6 °F 60% 29.96 in 10.0 mi WNW 8.1 mph - N/A   Overcast
6:55 PM 30.2 °F 21.3 °F 17.6 °F 60% 29.96 in 10.0 mi WNW 10.4 mph - N/A   Overcast
7:15 PM 30.2 °F 21.3 °F 17.6 °F 60% 29.96 in 10.0 mi WNW 10.4 mph - N/A   Overcast
7:35 PM 30.2 °F 22.6 °F 19.4 °F 64% 29.96 in 10.0 mi West 8.1 mph - N/A   Overcast
7:55 PM 30.2 °F 21.9 °F 19.4 °F 64% 29.96 in 10.0 mi West 9.2 mph - N/A   Overcast
8:15 PM 30.2 °F 23.4 °F 17.6 °F 60% 29.96 in 10.0 mi West 6.9 mph - N/A   Overcast
8:35 PM 28.4 °F 21.2 °F 19.4 °F 69% 29.96 in 10.0 mi West 6.9 mph - N/A   Scattered Clouds
8:55 PM 28.4 °F 22.2 °F 19.4 °F 69% 29.97 in 10.0 mi West 5.8 mph - N/A   Clear
9:15 PM 28.4 °F 23.3 °F 19.4 °F 69% 29.97 in 10.0 mi West 4.6 mph - N/A   Clear
9:35 PM 26.6 °F 20.0 °F 19.4 °F 74% 29.97 in 10.0 mi West 5.8 mph - N/A   Clear
9:55 PM 26.6 °F 20.0 °F 19.4 °F 74% 29.98 in 10.0 mi WSW 5.8 mph - N/A   Clear
10:15 PM 26.6 °F 20.0 °F 19.4 °F 74% 29.98 in 10.0 mi West 5.8 mph - N/A   Clear
10:35 PM 26.6 °F 21.2 °F 19.4 °F 74% 29.98 in 10.0 mi West 4.6 mph - N/A   Clear
10:55 PM 26.6 °F 20.0 °F 19.4 °F 74% 29.98 in 10.0 mi WSW 5.8 mph - N/A   Clear
11:15 PM 26.6 °F 19.1 °F 19.4 °F 74% 29.98 in 10.0 mi WSW 6.9 mph - N/A   Clear
11:35 PM 26.6 °F 19.1 °F 19.4 °F 74% 29.98 in 10.0 mi WSW 6.9 mph - N/A   Clear
11:55 PM 26.6 °F 21.2 °F 17.6 °F 69% 29.98 in 10.0 mi WSW 4.6 mph - N/A   Clear